Weather in Yasneg

Russia / Komi Republic     61°10′40″N   50°38′40″E
temp.,
°C
wind,
m/s
gust,
m/s
humid.,
%
clouds,
%
prec.,
mm/h
press.,
hPa
HPBL,
m
5 march, fri
fri500:00−13nw3796100 0.3 992245
03:00−15wnw3796100 0.5 994296
06:00−17wnw3796100 0.1 995289
09:00−17w359599 0.1 997285
12:00−14w359099 0.1 998579
15:00−13wnw3590100 0.3 1000691
18:00−15wnw269799 0.3 1002248
21:00−16wnw389793 0.4 1003262
6 march, sat
sat600:00−18wnw259892 0.1 1004112
03:00−19wnw249891 0.1 1006119
06:00−19w249897 0.1 1007140
09:00−16wnw259397 0.3 1008434
12:00−15wnw3487100 0.1 1008724
15:00−14wnw3486100 0.2 1008863
18:00−18w2296100 0.1 100924
21:00−21wsw129998 0.1 100920
7 march, sun
sun700:00−23sw1210022 0.0 100820
03:00−24ssw1210047 0.0 100820
06:00−24s2210093 0.0 100820
09:00−19s249696 0.1 1007226
12:00−13sse2489100 0.0 1006449
15:00−12se2488100 0.1 1005594
18:00−16ese2397100 0.0 100472
21:00−17ese259899 0.1 1004130
8 march, mon
mon800:00−17ese3697100 0.0 1003149
03:00−18e3895100 0.0 1003234
06:00−18e3995100 0.0 1002267
09:00−17e3793100 0.0 1002298
12:00−14ene4791100 0.0 1001420
15:00−13ene4890100 0.0 1002553
18:00−15ene4994100 0.1 1003504
21:00−16ne3894100 0.3 1004405
9 march, tue
tue900:00−17ne3895100 0.1 1004339
03:00−20nne4896100 0.1 1005299
06:00−23nne3897100 0.0 1006272
09:00−23nne3795100 0.1 1008285
12:00−19n369197 0.0 1010398
15:00−18n369098 0.0 1012485
18:00−23n279794 0.0 1013159
21:00−27nne239881 0.0 101578